Regional Weather Roundup
Issued by NWS

Home | Current Version | Previous Version | Graphics & Text | Print | Product List | Glossary Off
Versions: 1 2 3 4 5 6 7 8 9 10 11 12 13 14 15 16 17 18 19 20 21 22 23 24 25 26 27 28 29 30 31 32 33 34 35 36 37 38 39 40 41 42 43 44 45 46 47 48 49 50

000
ASUS43 KMPX 190001
RWRMN
WEATHER ROUNDUP FOR MINNESOTA
NATIONAL WEATHER SERVICE TWIN CITIES/CHANHASSEN MN
600 PM CST THU DEC 18 2014


NOTE: "FAIR" INDICATES FEW OR NO CLOUDS BELOW 12,000 FEET WITH NO
SIGNIFICANT WEATHER AND/OR OBSTRUCTIONS TO VISIBILITY. N/A MEANS
CURRENT SKY AND/OR WEATHER CONDITIONS ARE NOT AVAILABLE.

MNZ060>063-068>070-190100-
   Twin Cities Metro

CITY           SKY/WX    TMP DP  RH WIND       PRES   REMARKS
TWIN CITIES    CLOUDY    21  15  78 VRB3      30.27S
6HR MIN TEMP:  19; 6HR MAX TEMP:  21; 6HR PCP:  0.01;

ST PAUL        CLOUDY    21  15  78 CALM      30.29S
CRYSTAL        CLOUDY    22  15  75 SE3       30.26S
LAKEVILLE      CLOUDY    19  16  86 CALM      30.26S
EDEN PRAIRIE   CLOUDY    22  14  71 SE5       30.26R WCI  16
6HR MIN TEMP:  20; 6HR MAX TEMP:  23; 6HR PCP: TRACE;

SOUTH ST PAUL  CLOUDY    22  16  76 CALM      30.27F
LAKE ELMO      CLOUDY    23  19  86 CALM      30.27S
$$
MNZ001>005-007-008-013>017-022>024-027-028-190100-
   Northwest Minnesota

CITY           SKY/WX    TMP DP  RH WIND       PRES   REMARKS
BEMIDJI        CLOUDY    18  14  85 SE5       30.18S WCI  11
HALLOCK        CLOUDY    19  16  86 S12       30.17S WCI   7
ROSEAU         FAIR      16  10  79 S7        30.18F WCI   6
WARROAD        PTCLDY    16  12  86 SE8       30.20R WCI   5
THIEF RVR FALL CLOUDY    19  16  86 SE7       30.17F WCI  10
CROOKSTON      CLOUDY    19  16  86 S10       30.19F WCI   8
FOSSTON        CLOUDY    18  16  93 SE7       30.18S WCI   8
DETROIT LAKES  PTCLDY    19  18  93 SE7       30.18F WCI  10
MOORHEAD       CLOUDY    21  19  93 S10       30.20F WCI  10
PARK RAPIDS    MOCLDY    17  13  84 SE6       30.18F WCI   9
MAHNOMEN       CLOUDY    19  14  81 S6        30.18R WCI  11
$$
MNZ006-009>011-018-025>026-190100-
   North Central Minnesota

CITY           SKY/WX    TMP DP  RH WIND       PRES   REMARKS
BAUDETTE       CLOUDY    18  13  80 VRB5      30.19F WCI  11
FLAG ISLAND    PTCLDY    16  12  86 S15       30.19S WCI   1
INTL FALLS     CLOUDY    20  16  84 E6        30.22F WCI  12
6HR MIN TEMP:  18; 6HR MAX TEMP:  20; 6HR PCP: TRACE;

WASKISH        CLOUDY    18  16  93 CALM      30.20F
BIG FORK       CLOUDY    21  18  86 SE8       30.21F WCI  12
LONGVILLE      CLOUDY    19  16  86 CALM      30.21F
GRAND RAPIDS   CLOUDY    19  19 100 S7        30.21S WCI  10
CRANE LAKE     CLOUDY    19  18  93 CALM      30.25F
ORR            CLOUDY    19  16  86 CALM      30.20S
COOK           CLOUDY    19  18  93 CALM      30.22S
WALKER         CLOUDY    17  13  85 SE5       30.20F WCI  10
$$
MNZ012-019>021-037-190100-
   Northeast Minnesota

CITY           SKY/WX    TMP DP  RH WIND       PRES   REMARKS
DULUTH         CLOUDY    24  17  74 S6        30.21F WCI  17
6HR MIN TEMP:  24; 6HR MAX TEMP:  25;

ELY            CLOUDY    23  19  86 SE3       30.22S
HIBBING        CLOUDY    22  18  85 CALM      30.22S
EVELETH        CLOUDY    23  21  93 CALM      30.22S
DULUTH HARBOR  CLOUDY    28  21  74 CALM      30.27F
SILVER BAY     CLOUDY    27  21  80 CALM      30.22F
GRAND MARAIS     N/A     15  10  80 NW6       30.29F WCI   6
G MARAIS ARPRT PTCLDY     9   3  78 NW3       30.22S
$$
MNZ029>031-032-039>041-046>048-054>057-064-190100-
   West Central Minnesota

CITY           SKY/WX    TMP DP  RH WIND       PRES   REMARKS
FERGUS FALLS   CLOUDY    19  12  73 SE8       30.23R WCI   9
WHEATON        CLOUDY    18  16  93 SE12      30.21S WCI   5
MORRIS         PTCLDY    19  16  86 SE12      30.20S WCI   7
ALEXANDRIA     CLOUDY    19  13  77 SE12      30.19F WCI   7
ELBOW LAKE     CLOUDY    19  15  86 SE9       30.19S WCI   7
WADENA         CLOUDY    18  12  79 NW8       30.19F WCI   7
GLENWOOD       CLOUDY    19  16  86 SE9       30.20F WCI   9
APPLETON       CLOUDY    21  18  86 SE5       30.21S WCI  15
BENSON         CLOUDY    19  16  86 S8        30.21F WCI   9
ORTONVILLE     CLOUDY    19  16  86 SE9       30.19F WCI   9
MADISON        CLEAR     25  21  86 SE5       30.21S WCI  19
WILLMAR        CLOUDY    21  16  79 SE9       30.23F WCI  11
$$
MNZ033>034-036-042>043-049>051-058-059-190100-
   Central Minnesota

CITY           SKY/WX    TMP DP  RH WIND       PRES   REMARKS
ST CLOUD       CLOUDY    20  14  77 CALM      30.24F
6HR MIN TEMP:  20; 6HR MAX TEMP:  22; 6HR PCP: TRACE;

SAUK CENTRE    CLOUDY    19  13  80 SE8       30.22F WCI   8
PAYNESVILLE    CLOUDY    17  13  86 E5        30.23F WCI   9
AITKIN         CLOUDY    23  18  80 CALM      30.21F
PINE RIVER     CLOUDY    18  16  93 SE5       30.24F WCI  11
BRAINERD       CLOUDY    19  15  84 SE5       30.22F WCI  12
STAPLES        MOCLDY    18  12  79 CALM      30.21S
LONG PRAIRIE   CLOUDY    19  14  79 SE8       30.21F WCI   9
LITTLE FALLS   CLOUDY    19  14  79 CALM      30.23F
LITCHFIELD     PTCLDY    18  16  93 CALM      30.24F
BUFFALO        CLOUDY    21  15  78 CALM      30.27S
MAPLE LAKE     PTCLDY    19  16  88 E3        30.25F
$$
MNZ037-044-045-052-053-190100-
   East Central Minnesota

CITY           SKY/WX    TMP DP  RH WIND       PRES   REMARKS
PRINCETON      CLOUDY    21  16  79 CALM      30.25F
MORA           CLOUDY    19  16  86 CALM      30.27S
CAMBRIDGE      CLOUDY    23  16  74 CALM      30.25S
RUSH CITY      CLOUDY    21  18  87 CALM      30.27S
MOOSE LAKE     CLOUDY    21  19  93 SW6       30.23S WCI  14
HINCKLEY       CLOUDY    23  19  86 CALM      30.26S
CLOQUET        CLOUDY    23  18  80 CALM      30.22S
MCGREGOR       CLOUDY    23  21  93 S3        30.23F
$$
MNZ071>073-080-081-089-090-097-098-190100-
   Southwest Minnesota

CITY           SKY/WX    TMP DP  RH WIND       PRES   REMARKS
MONTEVIDEO     CLOUDY    19  19 100 S7        30.23S WCI  10
GRANITE FALLS  CLOUDY    21  17  86 E7        30.23F WCI  12
CANBY          CLOUDY    23  21  93 SE7       30.20S WCI  15
MARSHALL       CLOUDY    21  18  86 SE7       30.20S WCI  13
REDWOOD FALLS  CLOUDY    22  16  78 SE8       30.23S WCI  12
OLIVIA         CLOUDY    23  19  86 SE6       30.23S WCI  16
PIPESTONE      CLOUDY    25  21  86 CALM      30.16S
WINDOM         CLOUDY    23  19  86 CALM      30.20S
WORTHINGTON    CLOUDY    25  21  86 S5        30.19S WCI  19
JACKSON        CLOUDY    27  19  74 SE5       30.20S WCI  21
TRACY          LGT SNOW  25  22  89 SE3       30.20S
SLAYTON        FLURRIES  25  23  94 CALM      30.18S
$$
MNZ065>067-074>077-082>085-091>093-190100-
   South Central Minnesota

CITY           SKY/WX    TMP DP  RH WIND       PRES   REMARKS
MANKATO        CLOUDY    21  14  73 E5        30.25S WCI  15
NEW ULM        CLOUDY    21  18  86 SE5       30.24S WCI  15
ST JAMES       CLOUDY    25  19  80 E5        30.25S WCI  19
FAIRMONT       CLOUDY    23  18  80 SE3       30.23R
GLENCOE        PTCLDY    19  17  89 CALM      30.25S
FARIBAULT      CLOUDY    19  16  86 SE3       30.25S
OWATONNA       PTCLDY    21  16  79 CALM      30.24S
WASECA         CLOUDY    23  18  80 E5        30.26S WCI  17
ALBERT LEA     CLOUDY    21  18  86 E3        30.23S
$$
MNZ078>079-086>088-094>096-190100-
   Southeast Minnesota

CITY           SKY/WX    TMP DP  RH WIND       PRES   REMARKS
ROCHESTER      CLOUDY    21  15  78 SW3       30.24S
6HR MIN TEMP:  19; 6HR MAX TEMP:  21;

RED WING       CLOUDY    23  18  80 CALM      30.27S
STANTON        CLOUDY    22  16  75 CALM      30.25S
DODGE CENTER   CLOUDY    19  16  86 CALM      30.24R
WINONA         CLOUDY    27  21  80 E3        30.28S
AUSTIN         CLOUDY    19  16  86 CALM      30.24S
PRESTON        CLOUDY    21  16  81 CALM      30.24S
$$
ABBREVIATIONS USED IN REMARKS
   TC - TEMPERATURES IN CELSIUS
  WCI - WIND CHILL INDEX
   HX - HEAT INDEX
  VSB - VISIBILITY
$$


USA.gov is the U.S. government's official web portal to all federal, state and local government web resources and services.